Baku, Azerbaijan

12:05 PM +04 on June 23, 2018 (GMT +0400)
Bina

Weather History for UBBB - March, 2018

Change the Weather History Date:

Monday, March 26, 2018

  Actual Average Record
Temperature  
Mean Temperature 48 °F -  
Max Temperature 52 °F - - ()
Min Temperature 43 °F - - ()
Degree Days  
Heating Degree Days 18    
Moisture  
Dew Point 42 °F    
Average Humidity 82    
Maximum Humidity 100    
Minimum Humidity 58    
Precipitation  
Precipitation 0.00 in - - ()
Sea Level Pressure  
Sea Level Pressure 30.23 in    
Wind  
Wind Speed 9 mph ()    
Max Wind Speed 15 mph    
Max Gust Speed -    
Visibility 6.2 miles    
Events      
T = Trace of Precipitation, MM = Missing Value Source: Averaged Metar Reports

Daily Weather History Graph

Daily Weather History Graph

Search for Another Location

Airport or City:

Astronomy

Mar. 26, 2018 Rise Set
Actual Time 6:33 AM +04 6:57 PM +04
Civil Twilight 6:06 AM +04 7:25 PM +04
Nautical Twilight 5:34 AM +04 7:57 PM +04
Astronomical Twilight 5:01 AM +04 8:30 PM +04
Moon 1:18 PM +04 (3/26) 3:12 AM +04 (3/26)
Length of Visible Light 13h 18m
Length of Day
12h 23m
Waxing Gibbous, 69% of the Moon is Illuminated
Mar 26
Waxing Gibbous
Mar 31
Full
Apr 8
Last Quarter
Apr 16
New
Apr 23
First Quarter

Hourly Weather History & Observations

Time (+04) Temp. Windchill Dew Point Humidity Pressure Visibility Wind Dir Wind Speed Gust Speed Precip Events Conditions
12:00 AM 46.4 °F 41.1 °F 44.6 °F 93% 30.21 in 6.2 mi North 11.5 mph - N/A   Overcast
12:30 AM 46.4 °F 41.5 °F 44.6 °F 93% 30.21 in 6.2 mi North 10.4 mph - N/A   Overcast
1:00 AM 46 °F - 43 °F 85% 30.22 in 6 mi NW 8.9 mph - -   Mostly Cloudy
1:00 AM 46.4 °F 41.5 °F 44.6 °F 93% 30.21 in 6.2 mi NNW 10.4 mph - N/A   Mostly Cloudy
1:30 AM 46.4 °F 42.4 °F 44.6 °F 93% 30.21 in 6.2 mi NNW 8.1 mph - N/A   Mostly Cloudy
2:00 AM 46.4 °F 41.9 °F 44.6 °F 93% 30.21 in 6.2 mi NNW 9.2 mph - N/A   Mostly Cloudy
2:30 AM 46.4 °F 41.5 °F 44.6 °F 93% 30.21 in 6.2 mi NNW 10.4 mph - N/A   Mostly Cloudy
3:00 AM 46.4 °F 41.9 °F 44.6 °F 93% 30.21 in 6.2 mi North 9.2 mph - N/A   Mostly Cloudy
3:30 AM 44.6 °F 40.2 °F 44.6 °F 100% 30.21 in 6.2 mi NNW 8.1 mph - N/A   Mostly Cloudy
4:00 AM 45 °F - 43 °F 88% 30.21 in 6 mi NW 8.9 mph - -   Mostly Cloudy
4:00 AM 44.6 °F 40.2 °F 44.6 °F 100% 30.21 in 6.2 mi NNW 8.1 mph - N/A   Mostly Cloudy
4:30 AM 44.6 °F 39.7 °F 44.6 °F 100% 30.21 in 6.2 mi North 9.2 mph - N/A   Mostly Cloudy
5:00 AM 44.6 °F 41.4 °F 42.8 °F 93% 30.21 in 6.2 mi North 5.8 mph - N/A   Mostly Cloudy
5:30 AM 44.6 °F 40.7 °F 42.8 °F 93% 30.21 in 6.2 mi North 6.9 mph - N/A   Mostly Cloudy
6:00 AM 44.6 °F 40.2 °F 42.8 °F 93% 30.21 in 6.2 mi North 8.1 mph - N/A   Mostly Cloudy
6:30 AM 44.6 °F 40.7 °F 42.8 °F 93% 30.24 in 6.2 mi North 6.9 mph - N/A   Mostly Cloudy
7:00 AM 44 °F - 41 °F 87% 30.25 in 6 mi NNW 4.5 mph - -   Mostly Cloudy
7:00 AM 44.6 °F 40.2 °F 42.8 °F 93% 30.24 in 6.2 mi North 8.1 mph - N/A   Mostly Cloudy
7:30 AM 44.6 °F 39.7 °F 42.8 °F 93% 30.24 in 6.2 mi North 9.2 mph - N/A   Mostly Cloudy
8:00 AM 44.6 °F 40.2 °F 42.8 °F 93% 30.27 in 6.2 mi North 8.1 mph - N/A   Mostly Cloudy
8:30 AM 46.4 °F 41.9 °F 44.6 °F 93% 30.27 in 6.2 mi North 9.2 mph - N/A   Overcast
9:00 AM 46.4 °F 41.5 °F 42.8 °F 87% 30.30 in 6.2 mi North 10.4 mph - N/A   Mostly Cloudy
9:30 AM 48.2 °F - 42.8 °F 82% 30.30 in 6.2 mi North 9.2 mph - N/A   Mostly Cloudy
10:00 AM 49 °F - 43 °F 74% 30.30 in 6 mi North 4.5 mph - -   Partly Cloudy
10:00 AM 50.0 °F - 42.8 °F 76% 30.30 in - North 9.2 mph - N/A   Clear
10:30 AM 51.8 °F - 44.6 °F 76% 30.27 in - North 11.5 mph - N/A   Clear
11:00 AM 51.8 °F - 42.8 °F 71% 30.27 in 6.2 mi NNE 9.2 mph - N/A   Mostly Cloudy
11:30 AM 51.8 °F - 42.8 °F 71% 30.27 in 6.2 mi North 10.4 mph - N/A   Mostly Cloudy
12:00 PM 53.6 °F - 42.8 °F 67% 30.27 in 6.2 mi NNE 9.2 mph - N/A   Mostly Cloudy
12:30 PM 51.8 °F - 42.8 °F 71% 30.27 in 6.2 mi North 9.2 mph - N/A   Mostly Cloudy
1:00 PM 52 °F - 42 °F 58% 30.26 in 6 mi NW 6.7 mph - -   Partly Cloudy
1:00 PM 51.8 °F - 41.0 °F 67% 30.24 in 6.2 mi NNE 8.1 mph - N/A   Scattered Clouds
1:30 PM 53.6 °F - 41.0 °F 62% 30.24 in 6.2 mi NNE 8.1 mph - N/A   Scattered Clouds
2:00 PM 53.6 °F - 41.0 °F 62% 30.24 in 6.2 mi NE 8.1 mph - N/A   Scattered Clouds
2:30 PM 51.8 °F - 41.0 °F 67% 30.21 in 6.2 mi NE 9.2 mph - N/A   Scattered Clouds
3:00 PM 53.6 °F - 41.0 °F 62% 30.21 in - NE 8.1 mph - N/A   Clear
3:30 PM 53.6 °F - 41.0 °F 62% 30.18 in - NE 11.5 mph - N/A   Clear
4:00 PM 50 °F - 42 °F 64% 30.20 in 6 mi NNW 11.2 mph - -   Mostly Cloudy
4:00 PM 50.0 °F - 41.0 °F 71% 30.21 in - NNE 12.7 mph - N/A   Clear
4:30 PM 50.0 °F - 41.0 °F 71% 30.21 in - NE 6.9 mph - N/A   Clear
5:00 PM 50.0 °F - 41.0 °F 71% 30.21 in - North 8.1 mph - N/A   Clear
5:30 PM 48.2 °F - 41.0 °F 76% 30.21 in 6.2 mi NNW 13.8 mph - N/A   Mostly Cloudy
6:00 PM 46.4 °F 40.4 °F 41.0 °F 81% 30.21 in 6.2 mi NNW 13.8 mph - N/A   Mostly Cloudy
6:30 PM 46.4 °F 41.1 °F 42.8 °F 87% 30.21 in 6.2 mi NNW 11.5 mph - N/A   Mostly Cloudy
7:00 PM 46 °F - 41 °F 77% 30.23 in 6 mi WNW 13.4 mph - -   Mostly Cloudy
7:00 PM 46.4 °F 40.1 °F 42.8 °F 87% 30.21 in 6.2 mi NNW 15.0 mph - N/A   Mostly Cloudy
7:30 PM 46.4 °F 40.7 °F 42.8 °F 87% 30.24 in 6.2 mi NNW 12.7 mph - N/A   Mostly Cloudy
8:00 PM 46.4 °F 41.1 °F 41.0 °F 81% 30.24 in 6.2 mi NNW 11.5 mph - N/A   Overcast
8:30 PM 46.4 °F 41.1 °F 41.0 °F 81% 30.24 in 6.2 mi NNW 11.5 mph - N/A   Overcast
9:00 PM 46.4 °F 41.1 °F 41.0 °F 81% 30.24 in 6.2 mi NNW 11.5 mph - N/A   Overcast
9:30 PM 46.4 °F 41.1 °F 41.0 °F 81% 30.24 in - NNW 11.5 mph - N/A   Clear
10:00 PM 46 °F - 41 °F 77% 30.26 in 6 mi WNW 6.7 mph - -   Mostly Cloudy
10:00 PM 46.4 °F 41.5 °F 41.0 °F 81% 30.24 in - NNW 10.4 mph - N/A   Clear
10:30 PM 44.6 °F 39.2 °F 41.0 °F 87% 30.24 in - NNW 10.4 mph - N/A   Clear
11:00 PM 44.6 °F 38.8 °F 41.0 °F 87% 30.21 in - NNW 11.5 mph - N/A   Clear
11:30 PM 44.6 °F 40.7 °F 41.0 °F 87% 30.21 in - NW 6.9 mph - N/A   Clear